ZKPCA YCRG-YCOM

Flight info

Callsign ZKPCA
Flight time 0h 47m
Altitude 8000
Route YCRG N0447A130 YKHA YGEI YJIN YCOM
Aircraft C172/L-V/N

Departure

Time 2026-04-16 12:21
Airport Corryong Airport (YCRG)

Arrival

Time 2026-04-16 13:08
Airport Cooma Snowy Mountains Airport (YCOM)
Time Latitude Longitude Altitude Speed Heading
2026-04-16 12:21 -36.19133 147.97351 2958 ft 102 kts 100°
2026-04-16 12:21 -36.19489 147.98081 3170 ft 96 kts 117°
2026-04-16 12:21 -36.19674 147.98891 3237 ft 97 kts 76°
2026-04-16 12:21 -36.19658 147.99832 3121 ft 119 kts 90°
2026-04-16 12:22 -36.19893 148.00793 3172 ft 113 kts 108°
2026-04-16 12:22 -36.19932 148.01799 3125 ft 123 kts 84°
2026-04-16 12:22 -36.19961 148.02862 3129 ft 125 kts 88°
2026-04-16 12:22 -36.20053 148.03942 3087 ft 131 kts 90°
2026-04-16 12:23 -36.20048 148.05046 3083 ft 127 kts 83°
2026-04-16 12:23 -36.20111 148.06144 3088 ft 128 kts 89°
2026-04-16 12:23 -36.20181 148.07242 3088 ft 128 kts 90°
2026-04-16 12:23 -36.20247 148.08337 3087 ft 128 kts 89°
2026-04-16 12:24 -36.20306 148.09420 3057 ft 129 kts 84°
2026-04-16 12:24 -36.19898 148.09910 2885 ft 74 kts 327°
2026-04-16 12:24 -36.19797 148.09386 2422 ft 97 kts 221°
2026-04-16 12:24 -36.20376 148.09535 2199 ft 91 kts 142°
2026-04-16 12:25 -36.20932 148.09944 1925 ft 92 kts 148°
2026-04-16 12:25 -36.21454 148.10377 1709 ft 88 kts 140°
2026-04-16 12:25 -36.21942 148.10848 1447 ft 91 kts 136°
2026-04-16 12:25 -36.22112 148.11318 1389 ft 72 kts 15°
2026-04-16 12:26 -36.21595 148.11220 1000 ft 77 kts 327°
2026-04-16 12:26 -36.21236 148.10934 957 ft 47 kts 321°
2026-04-16 12:26 -36.20943 148.10673 953 ft 62 kts 327°
2026-04-16 12:26 -36.20533 148.10404 1113 ft 64 kts 15°
2026-04-16 12:27 -36.20154 148.10659 1707 ft 115 kts 76°
2026-04-16 12:27 -36.20787 148.11175 1697 ft 117 kts 171°
2026-04-16 12:27 -36.21562 148.11474 1802 ft 114 kts 162°
2026-04-16 12:27 -36.22260 148.11756 2069 ft 100 kts 162°
2026-04-16 12:28 -36.22933 148.12005 2188 ft 104 kts 162°
2026-04-16 12:28 -36.23630 148.12253 2311 ft 103 kts 162°
2026-04-16 12:28 -36.24318 148.12498 2441 ft 105 kts 162°
2026-04-16 12:28 -36.25052 148.12759 2499 ft 111 kts 162°
2026-04-16 12:29 -36.25770 148.13016 2665 ft 106 kts 161°
2026-04-16 12:29 -36.26487 148.13257 2773 ft 107 kts 163°
2026-04-16 12:29 -36.27211 148.13509 2879 ft 109 kts 162°
2026-04-16 12:29 -36.27941 148.13766 3031 ft 109 kts 162°
2026-04-16 12:30 -36.28678 148.14036 3145 ft 111 kts 163°
2026-04-16 12:30 -36.29426 148.14323 3266 ft 113 kts 162°
2026-04-16 12:30 -36.30176 148.14617 3447 ft 113 kts 163°
2026-04-16 12:30 -36.30929 148.14917 3616 ft 114 kts 163°
2026-04-16 12:31 -36.31673 148.15233 3786 ft 115 kts 163°
2026-04-16 12:31 -36.32430 148.15568 3933 ft 118 kts 163°
2026-04-16 12:31 -36.33325 148.15972 3630 ft 151 kts 160°
2026-04-16 12:31 -36.34283 148.16443 3443 ft 146 kts 155°
2026-04-16 12:32 -36.35273 148.16867 3209 ft 154 kts 168°
2026-04-16 12:32 -36.36341 148.17032 3045 ft 151 kts 169°
2026-04-16 12:32 -36.37353 148.17138 2948 ft 144 kts 181°
2026-04-16 12:32 -36.38388 148.17164 2742 ft 144 kts 185°
2026-04-16 12:33 -36.39354 148.17067 2645 ft 142 kts 184°
2026-04-16 12:33 -36.40198 148.17137 2843 ft 102 kts 160°
2026-04-16 12:33 -36.40548 148.17674 2703 ft 77 kts 76°
2026-04-16 12:33 -36.40161 148.18207 2341 ft 94 kts 27°
2026-04-16 12:34 -36.39516 148.18432 1979 ft 97 kts
2026-04-16 12:34 -36.38859 148.18363 1673 ft 98 kts 346°
2026-04-16 12:34 -36.38216 148.18053 1390 ft 98 kts 338°
2026-04-16 12:34 -36.37720 148.17739 1587 ft 69 kts 339°
2026-04-16 12:35 -36.37395 148.17895 2018 ft 124 kts 32°
2026-04-16 12:35 -36.37029 148.18589 2458 ft 93 kts 105°
2026-04-16 12:35 -36.37657 148.18598 2211 ft 121 kts 214°
2026-04-16 12:35 -36.38463 148.18497 2346 ft 117 kts 159°
2026-04-16 12:36 -36.39022 148.19289 2270 ft 124 kts 111°
2026-04-16 12:36 -36.39156 148.20065 2755 ft 92 kts 51°
2026-04-16 12:36 -36.38730 148.20708 2905 ft 104 kts 35°
2026-04-16 12:36 -36.38148 148.21365 3033 ft 115 kts 42°
2026-04-16 12:37 -36.37661 148.22189 3208 ft 123 kts 44°
2026-04-16 12:37 -36.37256 148.23075 3473 ft 121 kts 65°
2026-04-16 12:37 -36.37026 148.24040 3768 ft 107 kts 56°
2026-04-16 12:37 -36.36757 148.24876 4022 ft 104 kts 62°
2026-04-16 12:38 -36.36474 148.25694 4092 ft 108 kts 52°
2026-04-16 12:38 -36.36057 148.26514 4251 ft 116 kts 58°
2026-04-16 12:38 -36.36016 148.27510 4524 ft 113 kts 93°
2026-04-16 12:38 -36.36089 148.28456 4823 ft 106 kts 94°
2026-04-16 12:39 -36.36156 148.29356 5139 ft 101 kts 87°
2026-04-16 12:39 -36.36194 148.30208 5346 ft 102 kts 81°
2026-04-16 12:39 -36.36099 148.31084 5564 ft 103 kts 60°
2026-04-16 12:39 -36.35885 148.31946 5861 ft 107 kts 58°
2026-04-16 12:40 -36.35993 148.32828 6182 ft 107 kts 138°
2026-04-16 12:40 -36.36538 148.33436 6506 ft 101 kts 159°
2026-04-16 12:40 -36.37129 148.33576 6465 ft 82 kts 213°
2026-04-16 12:40 -36.37723 148.33490 6642 ft 95 kts 192°
2026-04-16 12:41 -36.38419 148.33707 6463 ft 135 kts 166°
2026-04-16 12:41 -36.39232 148.34359 6490 ft 118 kts 157°
2026-04-16 12:41 -36.39873 148.35052 6475 ft 124 kts 129°
2026-04-16 12:41 -36.40189 148.36121 6685 ft 128 kts 111°
2026-04-16 12:42 -36.40533 148.37096 6987 ft 117 kts 114°
2026-04-16 12:42 -36.40852 148.38092 6947 ft 133 kts 109°
2026-04-16 12:42 -36.41160 148.39235 6892 ft 151 kts 98°
2026-04-16 12:42 -36.41180 148.40569 6686 ft 155 kts 82°
2026-04-16 12:43 -36.41140 148.41850 6761 ft 148 kts 81°
2026-04-16 12:43 -36.41107 148.43176 6645 ft 159 kts 88°
2026-04-16 12:43 -36.41219 148.44541 6520 ft 155 kts 89°
2026-04-16 12:43 -36.41135 148.45818 6505 ft 145 kts 79°
2026-04-16 12:44 -36.41051 148.47083 6418 ft 149 kts 78°
2026-04-16 12:44 -36.40976 148.48380 6286 ft 151 kts 81°
2026-04-16 12:44 -36.40887 148.49667 6270 ft 152 kts 79°
2026-04-16 12:44 -36.40787 148.50967 6356 ft 151 kts 79°
2026-04-16 12:45 -36.40696 148.52272 6474 ft 152 kts 79°
2026-04-16 12:45 -36.40603 148.53581 6525 ft 152 kts 79°
2026-04-16 12:45 -36.40647 148.54903 6604 ft 155 kts 98°
2026-04-16 12:45 -36.40800 148.56221 6547 ft 153 kts 92°
2026-04-16 12:46 -36.41304 148.57498 5683 ft 174 kts 142°
2026-04-16 12:46 -36.42198 148.58511 4801 ft 173 kts 136°
2026-04-16 12:46 -36.42959 148.59588 4037 ft 145 kts 132°
2026-04-16 12:46 -36.43502 148.60374 3618 ft 102 kts 115°
2026-04-16 12:47 -36.43281 148.60595 3630 ft 63 kts 301°
2026-04-16 12:47 -36.42980 148.60079 3414 ft 82 kts 314°
2026-04-16 12:47 -36.42633 148.59537 3456 ft 74 kts 306°
2026-04-16 12:47 -36.42442 148.58915 3633 ft 72 kts 247°
2026-04-16 12:48 -36.42910 148.58753 3712 ft 85 kts 147°
2026-04-16 12:48 -36.43304 148.59295 3848 ft 88 kts 113°
2026-04-16 12:48 -36.43575 148.60077 3779 ft 110 kts 102°
2026-04-16 12:48 -36.43759 148.60962 4012 ft 99 kts 99°
2026-04-16 12:49 -36.44082 148.61811 3910 ft 124 kts 121°
2026-04-16 12:49 -36.44472 148.62746 3978 ft 122 kts 114°
2026-04-16 12:49 -36.44737 148.63712 4065 ft 120 kts 89°
2026-04-16 12:49 -36.44358 148.64062 4233 ft 87 kts 292°
2026-04-16 12:50 -36.44062 148.63379 4194 ft 86 kts 297°
2026-04-16 12:50 -36.43897 148.62776 4033 ft 76 kts 270°
2026-04-16 12:50 -36.44023 148.62108 3882 ft 79 kts 250°
2026-04-16 12:50 -36.44056 148.61520 3791 ft 64 kts 307°
2026-04-16 12:51 -36.43683 148.61125 3695 ft 77 kts 310°
2026-04-16 12:51 -36.43339 148.60611 3525 ft 74 kts 315°
2026-04-16 12:51 -36.43049 148.60166 3387 ft 54 kts 310°
2026-04-16 12:51 -36.42885 148.59938 3357 ft 13 kts 318°
2026-04-16 12:52 -36.42831 148.59848 3351 ft 15 kts 310°
2026-04-16 12:52 -36.42755 148.59727 3351 ft 17 kts 285°
2026-04-16 12:52 -36.42752 148.59689 3353 ft 0 kts 244°
2026-04-16 12:53 -36.42755 148.59686 3354 ft 3 kts 204°
2026-04-16 12:53 -36.42854 148.59844 3354 ft 46 kts 129°
2026-04-16 12:53 -36.43003 148.60065 3369 ft 19 kts 130°
2026-04-16 12:53 -36.43082 148.60182 3374 ft 18 kts 122°
2026-04-16 12:54 -36.43097 148.60221 3376 ft 2 kts 121°
2026-04-16 12:54 -36.43112 148.60291 3378 ft 7 kts 353°
2026-04-16 12:54 -36.43095 148.60269 3377 ft 0 kts 303°
2026-04-16 12:55 -36.43093 148.60267 3377 ft 1 kts 311°
2026-04-16 12:55 -36.43041 148.60185 3373 ft 33 kts 307°
2026-04-16 12:55 -36.42782 148.59830 3351 ft 74 kts 315°
2026-04-16 12:56 -36.42328 148.59563 3475 ft 82 kts 10°
2026-04-16 12:56 -36.41944 148.60093 3583 ft 98 kts 78°
2026-04-16 12:56 -36.41833 148.60912 3834 ft 87 kts 71°
2026-04-16 12:56 -36.41647 148.61661 4076 ft 86 kts 63°
2026-04-16 12:57 -36.41380 148.62352 4312 ft 87 kts 52°
2026-04-16 12:57 -36.41096 148.63112 4379 ft 108 kts 65°
2026-04-16 12:57 -36.40905 148.63935 4742 ft 95 kts 69°
2026-04-16 12:57 -36.40746 148.64791 4937 ft 104 kts 67°
2026-04-16 12:58 -36.40568 148.65676 5136 ft 106 kts 63°
2026-04-16 12:58 -36.40407 148.66575 5400 ft 105 kts 65°
2026-04-16 12:58 -36.40213 148.67491 5486 ft 109 kts 63°
2026-04-16 12:58 -36.40027 148.68407 5655 ft 110 kts 69°
2026-04-16 12:59 -36.39871 148.69324 5805 ft 110 kts 62°
2026-04-16 12:59 -36.39677 148.70291 5910 ft 119 kts 67°
2026-04-16 12:59 -36.39459 148.71280 5970 ft 129 kts 69°
2026-04-16 13:00 -36.38870 148.73574 6081 ft 137 kts 62°
2026-04-16 13:00 -36.38580 148.74734 6079 ft 144 kts 64°
2026-04-16 13:00 -36.38286 148.75888 6078 ft 139 kts 65°
2026-04-16 13:00 -36.37983 148.77047 6083 ft 144 kts 64°
2026-04-16 13:01 -36.37652 148.78242 6082 ft 149 kts 64°
2026-04-16 13:01 -36.37361 148.79494 6092 ft 155 kts 78°
2026-04-16 13:01 -36.37219 148.80831 6090 ft 157 kts 79°
2026-04-16 13:01 -36.36970 148.82130 6076 ft 153 kts 62°
2026-04-16 13:02 -36.36611 148.83366 6082 ft 152 kts 63°
2026-04-16 13:02 -36.36246 148.84602 6083 ft 153 kts 63°
2026-04-16 13:02 -36.35883 148.85841 6085 ft 152 kts 63°
2026-04-16 13:02 -36.35640 148.86660 6083 ft 153 kts 61°
2026-04-16 13:03 -36.35215 148.87861 6081 ft 152 kts 58°
2026-04-16 13:03 -36.34781 148.89054 6079 ft 151 kts 58°
2026-04-16 13:03 -36.34347 148.90243 6079 ft 151 kts 58°
2026-04-16 13:03 -36.33915 148.91430 6081 ft 151 kts 58°
2026-04-16 13:04 -36.33488 148.92630 6079 ft 152 kts 58°
2026-04-16 13:04 -36.33113 148.93862 6085 ft 152 kts 63°
2026-04-16 13:04 -36.33471 148.95445 5605 ft 179 kts 114°
2026-04-16 13:04 -36.33396 148.96247 5490 ft 116 kts 19°
2026-04-16 13:05 -36.32579 148.96501 4825 ft 148 kts 36°
2026-04-16 13:05 -36.31792 148.97150 4234 ft 125 kts 338°
2026-04-16 13:05 -36.30996 148.96866 3595 ft 122 kts 358°
2026-04-16 13:05 -36.31030 148.97311 3466 ft 115 kts 191°
2026-04-16 13:06 -36.31791 148.97183 3448 ft 104 kts 195°
2026-04-16 13:06 -36.32259 148.96960 3694 ft 57 kts 241°
2026-04-16 13:06 -36.32078 148.96739 3628 ft 65 kts
2026-04-16 13:06 -36.31552 148.96879 3482 ft 82 kts
2026-04-16 13:07 -36.30972 148.96994 3209 ft 79 kts
2026-04-16 13:07 -36.30517 148.97120 3118 ft 65 kts
2026-04-16 13:07 -36.30064 148.97233 3107 ft 67 kts 12°
2026-04-16 13:07 -36.29599 148.97359 3096 ft 71 kts 11°
2026-04-16 13:08 -36.29142 148.97489 3059 ft 53 kts
2026-04-16 13:08 -36.29241 148.97469 3062 ft 0 kts
2026-04-16 13:08 -36.29251 148.97452 3062 ft 12 kts 172°
2026-04-16 13:08 -36.29390 148.97384 3063 ft 21 kts 259°
2026-04-16 13:09 -36.29413 148.97243 3063 ft 18 kts 256°
2026-04-16 13:09 -36.29488 148.97165 3064 ft 15 kts 145°
2026-04-16 13:09 -36.29417 148.97273 3062 ft 19 kts 321°
2026-04-16 13:09 -36.29330 148.97151 3060 ft 10 kts 279°
2026-04-16 13:10 -36.29303 148.97136 3060 ft 3 kts 67°
2026-04-16 13:10 -36.29314 148.97160 3062 ft 1 kts 144°
2026-04-16 13:10 -36.29316 148.97163 3062 ft 0 kts 132°